Wind_Speed
32 34 36 35 33 34 35 36 38 36 36 34 37 39 41 43 45 46 48 50 52 54 55 56 59 61 64 66 69 72 74 76 77 78 76 75 75 75 74 71 69 67 65 65
34 35 39 39 35 36 38 37 39 40 38 37 41 41 42 44 46 47 49 51 52 54 55 56 58 60 63 66 68 71 73 75 77 77 76 75 74 74 73 71 68 66 64 64
37 38 41 40 36 38 40 40 41 42 41 42 43 44 44 46 48 49 50 51 53 55 56 56 58 59 62 65 67 70 72 74 76 77 76 74 73 73 72 71 68 65 63 62
41 42 44 39 38 39 41 41 42 43 43 45 46 46 46 48 50 50 51 52 53 55 55 56 57 58 61 63 66 69 71 73 75 76 76 74 73 72 72 70 68 65 62 61
44 45 46 41 39 40 43 43 42 44 45 47 48 48 46 48 50 51 52 53 53 54 55 56 56 57 59 62 65 68 70 72 74 75 75 74 72 71 71 69 67 65 62 60
45 47 48 43 40 41 43 44 43 45 46 47 49 50 49 50 51 52 53 53 54 54 54 55 56 57 58 61 64 67 69 71 73 74 74 74 72 70 70 69 67 64 62 59
47 50 51 45 43 43 43 42 45 46 47 49 50 51 52 53 53 54 54 54 55 55 55 55 56 57 58 60 63 66 68 70 71 72 73 73 71 69 68 67 66 64 61 59
49 52 51 45 45 43 43 44 46 48 50 51 52 53 53 54 55 55 55 55 56 56 56 56 56 57 58 60 63 65 67 69 70 71 71 72 70 68 67 66 65 63 60 58
55 55 51 49 47 46 46 48 49 51 52 54 55 55 55 55 56 56 56 57 57 57 57 57 57 58 59 60 63 65 67 67 68 69 69 70 69 67 66 65 64 62 59 57
61 57 54 53 51 50 51 53 53 54 55 57 58 58 58 58 58 58 58 58 58 58 58 58 58 59 60 61 63 65 65 66 66 67 67 68 67 66 64 63 62 61 59 56
65 61 60 57 56 56 56 57 57 57 58 59 60 60 60 60 59 59 59 59 59 60 60 59 59 59 60 61 63 64 64 64 64 64 65 65 65 64 63 62 62 61 59 56
66 63 65 63 60 60 61 60 60 60 61 60 61 62 61 61 61 61 62 61 61 61 61 61 60 60 61 62 63 64 63 62 62 62 63 63 63 62 61 61 61 61 59 56
65 64 66 65 63 63 63 63 62 62 62 62 62 62 63 62 62 62 63 63 62 62 62 62 61 60 61 62 63 63 62 61 60 59 60 60 60 60 59 58 59 59 58 55
60 62 64 62 61 60 61 60 60 60 60 60 60 60 61 61 60 61 62 63 63 62 62 62 62 61 61 62 62 62 61 59 57 56 57 58 58 57 56 56 56 56 57 55
53 54 56 56 55 54 54 55 55 55 56 56 56 56 56 56 56 57 58 59 60 60 60 60 60 59 60 61 61 60 58 56 55 53 54 54 55 54 53 53 54 54 55 53
49 50 51 51 51 51 50 51 51 51 52 52 52 53 53 53 53 54 54 55 56 57 57 57 57 58 58 59 59 57 55 53 52 50 50 51 52 51 51 51 51 52 52 52
45 46 47 48 47 48 48 49 50 49 50 50 51 51 51 51 51 52 52 53 54 55 55 55 55 55 56 56 57 55 53 51 49 47 47 48 49 49 48 48 49 49 50 50
37 39 40 42 44 45 46 48 49 50 50 50 50 50 50 51 51 51 52 53 53 53 54 54 54 54 54 54 54 52 50 48 46 44 44 45 46 46 45 45 46 47 48 48
38 39 40 42 44 46 47 48 50 50 50 50 50 51 51 52 53 53 53 54 54 53 53 53 53 53 52 52 52 51 48 45 43 41 41 42 43 43 43 42 43 44 46 46
42 44 45 46 47 49 50 51 51 52 53 54 54 54 55 55 55 54 54 53 53 53 53 52 52 51 51 50 50 49 46 44 41 39 39 39 40 40 40 40 40 42 43 44
47 48 49 50 51 52 54 56 57 58 58 59 60 59 59 59 57 56 55 53 52 53 52 51 50 50 50 49 47 45 43 42 39 37 36 37 37 37 37 37 38 39 41 42
50 51 52 53 55 56 58 60 61 62 63 63 63 63 61 60 59 58 56 55 53 52 51 50 49 49 48 47 45 43 41 40 37 35 34 34 34 35 34 35 35 37 39 40
53 54 56 57 59 61 62 64 66 66 66 66 65 65 64 63 62 61 58 56 55 52 50 49 48 47 47 46 44 41 39 37 35 33 32 32 32 32 32 32 33 35 36 38
56 57 59 61 63 65 66 67 68 68 68 68 68 68 68 67 64 63 61 58 55 53 50 48 47 46 45 43 41 39 36 35 33 31 30 30 29 29 30 30 31 32 34 36
58 59 61 63 65 67 69 70 69 69 69 69 69 69 69 68 66 62 59 56 53 51 48 46 45 44 42 41 39 36 33 32 31 29 28 28 27 27 28 28 29 30 32 34
58 59 61 64 66 68 68 68 67 67 68 68 68 67 66 64 61 57 54 51 49 47 44 42 41 40 39 37 35 33 31 30 28 26 26 25 24 25 26 26 27 28 30 32
57 59 61 62 63 64 65 65 65 65 66 67 65 62 59 56 52 47 45 43 42 41 39 38 37 36 34 33 32 31 29 28 25 24 24 23 22 23 24 24 25 26 28 30
Wind_Direction
269 267 266 266 268 272 277 283 287 292 294 299 298 303 308 311 314 318 321 324 328 331 333 336 338 340 342 343 345 346 347 348 349 349 348 348 350 351 353 354 355 355 355 355
269 267 268 269 271 275 278 281 285 288 292 294 295 300 303 306 310 313 317 321 324 328 330 333 336 338 340 342 343 345 346 348 348 349 348 348 350 351 353 355 356 356 355 356
272 269 269 271 274 274 277 281 284 287 290 290 293 297 300 302 306 310 314 318 321 325 327 330 333 336 338 340 342 344 346 347 348 348 349 348 350 351 353 355 356 357 356 357
276 274 272 276 275 275 276 279 282 285 287 289 292 295 298 301 304 308 311 315 318 321 324 327 330 333 336 338 341 343 345 346 347 348 348 348 349 351 353 355 357 358 358 358
277 277 277 277 278 278 278 280 282 284 285 287 290 293 295 298 302 305 308 311 315 318 321 324 327 330 333 336 339 341 343 344 346 347 347 348 349 351 353 355 357 358 359 359
277 278 279 282 282 281 281 282 283 283 284 286 288 291 293 296 299 303 306 309 312 315 318 321 324 328 330 334 337 339 341 343 344 346 347 347 348 350 352 355 357 358 359 359
276 277 279 284 285 285 285 286 283 284 285 286 288 291 294 296 299 302 305 307 310 313 316 319 322 325 328 331 334 337 339 341 343 344 345 346 347 349 352 354 357 358 359 360
274 275 280 283 283 284 284 283 283 283 285 286 288 290 292 295 297 300 303 305 307 310 313 316 319 321 324 328 331 334 337 339 341 343 344 345 346 348 351 354 356 358 359 360
273 275 279 280 281 282 281 280 280 282 284 285 287 289 291 293 295 298 300 302 304 307 309 312 315 318 321 324 327 331 334 336 338 341 343 344 345 347 350 353 356 358 359 0
274 276 277 277 278 279 278 278 279 280 282 283 285 287 289 290 292 294 296 299 301 303 306 309 311 314 317 320 323 327 330 333 336 338 341 343 344 345 348 352 355 357 359 0
276 277 276 276 277 277 277 277 279 280 281 282 284 286 287 289 291 293 295 297 299 301 303 306 308 310 313 315 318 322 326 330 333 336 339 341 342 344 347 350 353 356 358 360
277 278 277 276 276 277 277 277 278 279 279 280 282 284 286 288 289 291 292 294 296 298 300 302 304 306 308 311 314 318 322 326 329 333 336 339 340 342 345 348 352 355 358 360
277 277 276 277 277 277 277 277 278 279 281 282 282 283 285 286 287 289 290 292 293 295 296 298 301 302 304 307 310 314 318 322 326 330 333 336 338 340 343 347 350 354 357 360
275 276 277 277 278 278 279 280 281 281 282 282 283 284 285 287 288 289 289 290 291 293 294 295 297 299 300 302 306 310 314 318 322 326 331 334 336 339 341 345 349 353 356 359
275 276 278 279 280 282 283 283 283 283 284 284 285 286 287 288 289 290 290 291 292 292 293 294 296 297 298 300 303 306 310 314 318 323 328 331 334 337 340 343 347 351 354 357
276 277 278 279 281 282 284 285 285 286 287 288 288 289 290 290 291 291 291 291 292 292 292 292 294 295 296 298 300 303 307 310 314 319 324 328 332 335 338 342 346 350 353 356
281 281 281 281 281 283 285 287 288 289 290 290 290 291 291 292 292 291 291 291 291 292 292 291 291 292 294 295 297 300 303 306 310 315 321 325 329 332 336 340 344 348 352 355
285 285 284 284 284 284 285 286 288 289 290 290 291 291 291 292 293 294 293 293 292 292 291 289 288 290 292 293 295 296 299 302 306 311 317 322 326 330 334 338 343 347 351 354
285 286 286 286 287 288 288 289 289 290 290 291 292 292 293 293 294 294 294 294 293 291 289 288 287 288 289 291 293 294 296 298 301 307 313 319 324 328 332 336 341 345 349 353
285 286 287 288 289 289 289 289 290 290 290 290 291 292 292 293 293 293 292 293 292 290 287 285 285 286 287 288 290 290 292 294 297 303 310 316 321 325 330 334 339 343 348 351
286 287 288 288 288 289 290 290 290 290 291 291 291 291 291 292 292 292 292 291 290 288 286 284 283 284 284 285 286 287 289 291 293 299 306 313 318 323 327 332 337 342 346 350
287 288 288 288 288 288 289 289 289 290 290 290 290 290 290 290 290 290 290 290 289 287 285 283 281 281 281 281 281 283 285 287 289 295 302 310 315 320 325 330 335 340 344 349
286 287 287 288 288 288 289 289 289 289 289 289 289 289 289 290 289 288 287 287 286 285 283 281 279 279 278 277 277 278 281 283 285 291 299 306 312 317 323 328 333 338 343 347
286 286 287 288 289 289 290 289 289 289 289 289 289 289 289 289 288 287 286 285 284 282 280 279 277 276 274 273 273 274 276 278 281 287 295 303 309 314 320 326 331 336 341 346
286 287 288 289 290 291 291 290 289 288 288 288 289 289 289 289 289 287 285 283 281 279 277 275 273 272 271 270 268 269 272 273 277 283 293 300 306 311 317 323 329 334 339 344
288 289 291 292 293 293 293 292 291 291 290 290 289 289 289 288 287 285 283 280 278 276 274 271 269 268 267 266 263 263 267 269 273 280 290 296 302 308 315 321 327 332 338 343
290 292 293 295 296 296 296 295 294 294 293 293 291 290 289 287 285 283 280 278 276 274 271 268 265 264 262 258 256 258 262 265 269 278 287 293 299 306 313 319 325 330 336 342
Height
5822 5820 5818 5819 5819 5817 5813 5811 5807 5805 5802 5800 5793 5788 5783 5777 5771 5765 5759 5752 5745 5737 5728 5719 5709 5698 5687 5675 5662 5649 5635 5620 5604 5589 5573 5557 5541 5524 5507 5491 5475 5459 5444 5428
5815 5813 5809 5809 5811 5809 5805 5803 5799 5796 5794 5792 5785 5781 5776 5770 5764 5759 5752 5746 5738 5730 5721 5712 5703 5693 5682 5670 5657 5644 5630 5615 5600 5585 5569 5553 5537 5521 5505 5489 5473 5457 5442 5427
5806 5804 5801 5802 5805 5801 5797 5795 5791 5787 5787 5782 5777 5773 5768 5762 5757 5751 5745 5738 5731 5723 5714 5706 5696 5687 5676 5664 5652 5639 5625 5611 5596 5581 5566 5550 5534 5519 5503 5488 5472 5457 5442 5427
5795 5794 5791 5798 5794 5791 5787 5786 5782 5779 5776 5771 5767 5764 5760 5753 5748 5743 5737 5730 5723 5715 5707 5698 5689 5680 5670 5658 5646 5634 5621 5607 5592 5577 5562 5547 5531 5516 5501 5486 5471 5456 5442 5427
5784 5781 5780 5786 5785 5780 5776 5776 5773 5769 5766 5761 5757 5754 5751 5745 5739 5734 5729 5722 5715 5708 5700 5691 5682 5673 5663 5652 5641 5629 5616 5602 5589 5574 5559 5544 5529 5514 5499 5484 5470 5455 5441 5427
5774 5770 5770 5776 5773 5768 5766 5765 5763 5758 5754 5751 5747 5743 5742 5736 5731 5725 5719 5713 5706 5699 5691 5683 5674 5666 5656 5646 5635 5624 5611 5598 5585 5571 5556 5542 5527 5512 5497 5483 5468 5454 5440 5426
5764 5759 5759 5765 5761 5757 5756 5755 5750 5746 5743 5739 5736 5732 5728 5724 5719 5714 5708 5702 5696 5689 5682 5674 5666 5658 5649 5640 5629 5618 5607 5594 5581 5568 5553 5539 5525 5510 5496 5482 5468 5453 5440 5427
5753 5749 5752 5754 5749 5747 5744 5741 5738 5734 5730 5727 5724 5720 5716 5712 5707 5702 5697 5692 5685 5679 5673 5665 5658 5650 5642 5633 5624 5613 5602 5590 5577 5564 5551 5537 5523 5509 5495 5481 5467 5453 5440 5427
5740 5741 5743 5739 5738 5735 5732 5729 5726 5722 5719 5715 5711 5708 5704 5700 5696 5691 5686 5680 5674 5668 5662 5656 5649 5642 5634 5626 5617 5607 5596 5585 5573 5561 5548 5535 5521 5507 5493 5480 5467 5454 5441 5428
5725 5728 5729 5726 5724 5722 5718 5714 5712 5710 5706 5702 5697 5694 5691 5687 5683 5678 5674 5668 5663 5657 5652 5646 5640 5633 5626 5618 5609 5600 5591 5580 5569 5557 5545 5532 5519 5506 5492 5479 5466 5454 5441 5429
5709 5713 5711 5711 5709 5706 5702 5699 5698 5695 5692 5687 5683 5680 5677 5673 5670 5665 5660 5656 5651 5646 5641 5635 5630 5623 5617 5609 5601 5593 5584 5574 5564 5553 5541 5529 5517 5504 5491 5479 5466 5454 5442 5430
5693 5697 5690 5690 5692 5688 5684 5682 5681 5678 5676 5673 5668 5664 5662 5658 5655 5651 5646 5642 5638 5633 5628 5624 5619 5613 5606 5600 5593 5585 5577 5568 5558 5548 5537 5526 5514 5502 5490 5478 5465 5453 5441 5429
5676 5675 5671 5671 5672 5670 5666 5664 5664 5661 5659 5656 5654 5649 5645 5643 5640 5636 5632 5628 5624 5620 5615 5611 5607 5602 5596 5590 5583 5577 5570 5561 5552 5543 5533 5522 5511 5499 5488 5476 5464 5452 5440 5429
5658 5655 5651 5653 5653 5652 5649 5647 5646 5644 5642 5639 5636 5633 5629 5626 5624 5620 5616 5612 5609 5606 5602 5597 5593 5590 5584 5578 5573 5567 5561 5554 5545 5537 5527 5518 5507 5496 5485 5474 5463 5451 5440 5429
5641 5638 5636 5636 5636 5636 5634 5631 5629 5628 5626 5623 5620 5616 5614 5611 5608 5605 5601 5597 5594 5591 5587 5583 5580 5576 5571 5566 5562 5557 5552 5545 5538 5530 5522 5513 5503 5493 5482 5472 5461 5450 5439 5428
5625 5623 5622 5621 5621 5620 5618 5615 5613 5612 5610 5607 5605 5602 5599 5596 5593 5590 5586 5582 5579 5576 5572 5569 5566 5562 5558 5554 5550 5546 5542 5536 5530 5523 5515 5507 5498 5489 5479 5469 5459 5448 5438 5428
5611 5610 5609 5608 5607 5606 5604 5601 5599 5597 5594 5592 5589 5587 5584 5581 5578 5575 5571 5567 5564 5561 5557 5554 5551 5548 5545 5541 5538 5535 5531 5527 5522 5515 5509 5502 5493 5485 5476 5466 5457 5447 5437 5427
5599 5598 5597 5595 5594 5592 5590 5587 5584 5582 5579 5576 5574 5571 5568 5565 5562 5560 5556 5553 5549 5546 5542 5539 5536 5533 5531 5529 5526 5523 5521 5517 5513 5507 5502 5495 5488 5480 5472 5463 5454 5445 5435 5426
5589 5587 5585 5583 5581 5578 5576 5573 5570 5567 5564 5561 5558 5556 5552 5549 5546 5543 5540 5537 5534 5531 5527 5523 5521 5519 5518 5516 5513 5512 5510 5507 5503 5499 5494 5488 5482 5475 5467 5459 5451 5442 5434 5425
5578 5576 5573 5571 5568 5565 5561 5558 5555 5552 5548 5545 5542 5539 5536 5533 5529 5526 5523 5520 5517 5514 5511 5508 5506 5505 5504 5502 5501 5500 5498 5496 5494 5490 5486 5481 5476 5469 5462 5455 5447 5439 5431 5423
5565 5563 5560 5557 5554 5550 5546 5542 5538 5535 5531 5527 5523 5520 5517 5515 5511 5508 5505 5503 5501 5497 5495 5493 5492 5491 5490 5489 5488 5488 5487 5486 5484 5481 5478 5474 5469 5464 5457 5451 5444 5436 5428 5421
5551 5548 5544 5541 5537 5534 5530 5525 5520 5516 5512 5508 5504 5500 5497 5495 5492 5489 5487 5484 5482 5480 5478 5477 5477 5477 5476 5476 5476 5476 5476 5476 5475 5473 5470 5467 5462 5457 5452 5446 5439 5433 5425 5418
5535 5531 5527 5523 5519 5515 5512 5506 5500 5495 5491 5487 5483 5480 5477 5474 5472 5470 5469 5467 5464 5463 5462 5462 5462 5462 5462 5463 5464 5465 5465 5465 5465 5464 5462 5459 5455 5451 5446 5441 5435 5429 5422 5415
5517 5513 5509 5505 5499 5495 5491 5486 5480 5474 5470 5466 5462 5458 5454 5452 5451 5449 5447 5446 5445 5445 5445 5446 5446 5447 5448 5450 5452 5453 5454 5455 5455 5455 5454 5451 5448 5444 5440 5435 5430 5424 5418 5412
5499 5495 5491 5486 5480 5474 5469 5463 5458 5453 5447 5443 5440 5435 5431 5429 5428 5428 5426 5426 5425 5426 5427 5429 5431 5433 5435 5438 5440 5442 5444 5445 5446 5446 5445 5444 5441 5438 5434 5430 5425 5420 5414 5408
5482 5477 5472 5466 5459 5452 5446 5439 5433 5428 5423 5419 5416 5413 5409 5406 5405 5405 5405 5406 5407 5408 5411 5413 5416 5419 5422 5425 5428 5431 5433 5435 5436 5437 5437 5436 5434 5431 5428 5424 5420 5415 5410 5405
5465 5460 5454 5448 5441 5432 5425 5418 5412 5406 5400 5395 5392 5390 5387 5385 5385 5386 5387 5389 5390 5393 5395 5399 5402 5406 5410 5413 5417 5421 5423 5426 5428 5429 5429 5428 5427 5425 5422 5418 5415 5410 5406 5401